{"data":{"norad_id":60733,"epoch":"2026-09-21T20:15:29.204064Z","epoch_age_seconds":72275,"freshness":"FRESH","line1":"1 60733U 24152P   26264.84408801  .00000375  00000+0  22236-4 0  9999","line2":"2 60733  53.1609  75.1237 0001193  80.2417 279.8720 15.34388197116862","mean_motion":15.34388197,"eccentricity":0.0001193,"inclination_deg":53.1609,"raan_deg":75.1237,"arg_perigee_deg":80.2417,"mean_anomaly_deg":279.872,"bstar":2.2236e-5,"rev_number":11686,"period_min":93.848479988014,"perigee_km":461.9222050095,"apogee_km":463.5544378612,"semimajor_km":6840.8753214354,"source":"CELESTRAK","updated_at":"2026-09-22T09:00:49.280103Z"}}